Chillicothe, MO

1:20 AM CDT on April 28, 2017 (GMT -0500)
Chillicothe

Weather History for KCDJ - July, 2013

Change the Weather History Date:

Saturday, July 6, 2013

  Actual Average (KIRK) Record (KIRK)
Temperature  
Mean Temperature 79 °F -  
Max Temperature 90 °F 85 °F 103 °F (2012)
Min Temperature 68 °F 62 °F 48 °F (1967)
Cooling Degree Days 14    
Growing Degree Days 29 (Base 50)    
Moisture  
Dew Point 62 °F    
Average Humidity 56    
Maximum Humidity 76    
Minimum Humidity 40    
Precipitation  
Precipitation 0.00 in - - ()
Sea Level Pressure  
Sea Level Pressure 29.93 in    
Wind  
Wind Speed 6 mph (South)    
Max Wind Speed 12 mph    
Max Gust Speed 17 mph    
Averages and records for this station are not official NWS values.
T = Trace of Precipitation, MM = Missing Value Source: NWS Daily Summary

Daily Weather History Graph

Daily Weather History Graph

Search for Another Location

Airport or City:

Trip Planner

Search our weather history database for the weather conditions in past years. The results will help you decide how hot, cold, wet, or windy it might be!

Date:

Astronomy

Jul. 06, 2013 Rise Set
Actual Time 5:52 AM CDT 8:45 PM CDT
Civil Twilight 5:20 AM CDT 9:17 PM CDT
Nautical Twilight 4:39 AM CDT 9:58 PM CDT
Astronomical Twilight 3:52 AM CDT 10:45 PM CDT
Moon 4:39 AM CDT (7/6) 7:27 PM CDT (7/6)
Length of Visible Light 15h 57m
Length of Day
14h 52m
Waning Crescent, 2% of the Moon is Illuminated
Jul 6
Waning Crescent
Jul 8
New
Jul 15
First Quarter
Jul 22
Full
Jul 29
Last Quarter

Hourly Weather History & Observations

Time (CDT) Temp. Heat Index Dew Point Humidity Pressure Visibility Wind Dir Wind Speed Gust Speed Precip Events Conditions
12:52 AM 73.9 °F - 59.0 °F 59% 29.95 in - SE 5.8 mph - N/A   Unknown
1:52 AM 73.0 °F - 57.9 °F 59% 29.95 in - SSE 6.9 mph - N/A   Unknown
2:52 AM 71.1 °F - 57.0 °F 61% 29.95 in - SSE 5.8 mph - N/A   Unknown
3:52 AM 70.0 °F - 57.9 °F 65% 29.95 in - SSE 5.8 mph - N/A   Unknown
4:52 AM 69.1 °F - 59.0 °F 70% 29.95 in - SE 4.6 mph - N/A   Unknown
5:52 AM 68.0 °F - 59.0 °F 73% 29.96 in - SSE 3.5 mph - N/A   Unknown
6:52 AM 68.0 °F - 60.1 °F 76% 29.97 in - SSE 4.6 mph - N/A   Unknown
7:52 AM 71.1 °F - 62.1 °F 73% 29.98 in - SSE 4.6 mph - N/A   Unknown
8:52 AM 75.0 °F - 63.0 °F 66% 29.96 in - South 6.9 mph - N/A   Unknown
9:52 AM 79.0 °F - 64.0 °F 60% 29.95 in - South 8.1 mph - N/A   Unknown
10:52 AM 82.9 °F 84.6 °F 64.9 °F 54% 29.95 in - SSW 6.9 mph - N/A   Unknown
11:52 AM 84.9 °F 86.6 °F 64.9 °F 51% 29.93 in - SSW 9.2 mph 17.3 mph N/A   Unknown
12:52 PM 86.0 °F 87.3 °F 64.0 °F 48% 29.92 in - South 8.1 mph - N/A   Unknown
1:52 PM 88.0 °F 89.3 °F 64.0 °F 45% 29.90 in - SSE 8.1 mph - N/A   Unknown
2:52 PM 89.1 °F 90.0 °F 63.0 °F 42% 29.89 in - South 9.2 mph - N/A   Unknown
3:52 PM 89.1 °F 90.3 °F 64.0 °F 43% 29.88 in - SSE 11.5 mph - N/A   Unknown
4:52 PM 90.0 °F 90.6 °F 63.0 °F 40% 29.88 in - South 6.9 mph 17.3 mph N/A   Unknown
5:52 PM 89.1 °F 90.0 °F 63.0 °F 42% 29.88 in - South 11.5 mph - N/A   Unknown
6:52 PM 87.1 °F 87.8 °F 63.0 °F 44% 29.88 in - South 5.8 mph - N/A   Unknown
7:52 PM 86.0 °F 86.8 °F 63.0 °F 46% 29.89 in - South 8.1 mph - N/A   Unknown
8:52 PM 82.9 °F 83.7 °F 62.1 °F 49% 29.90 in - South 5.8 mph - N/A   Unknown
9:52 PM 81.0 °F 81.7 °F 61.0 °F 50% 29.91 in - South 4.6 mph - N/A   Unknown
10:52 PM 77.0 °F - 63.0 °F 62% 29.92 in - Calm Calm - N/A   Unknown
11:52 PM 75.0 °F - 62.1 °F 64% 29.93 in - SSE 3.5 mph - N/A   Unknown